Time,TemperatureF,DewpointF,PressureIn,WindDirection,WindDirectionDegrees,WindSpeedMPH,WindSpeedGustMPH,Humidity,HourlyPrecipIn,Conditions,Clouds,dailyrainin,SoftwareType,DateUTC
2013-06-04 00:00:00,41.0,25.0,-100.00,NNE,25,1.0,3.0,52,-99.99,,,-99.99,,2013-06-04 06:00:00,
2013-06-04 00:42:00,41.0,25.0,-100.00,NNE,25,1.0,3.0,52,-99.99,,,-99.99,,2013-06-04 06:42:00,
2013-06-04 00:52:00,41.0,25.0,-100.00,NNE,25,1.0,3.0,52,-99.99,,,-99.99,,2013-06-04 06:52:00,
2013-06-04 01:00:00,39.0,22.0,-100.00,ENE,73,1.0,2.0,49,-99.99,,,-99.99,,2013-06-04 07:00:00,
2013-06-04 01:42:00,39.0,22.0,-100.00,ENE,73,1.0,2.0,49,-99.99,,,-99.99,,2013-06-04 07:42:00,
2013-06-04 01:52:00,39.0,22.0,-100.00,ENE,73,1.0,2.0,49,-99.99,,,-99.99,,2013-06-04 07:52:00,
2013-06-04 02:00:00,37.0,21.0,-100.00,East,87,0.0,4.0,51,-99.99,,,-99.99,,2013-06-04 08:00:00,
2013-06-04 02:42:00,37.0,21.0,-100.00,East,87,0.0,4.0,51,-99.99,,,-99.99,,2013-06-04 08:42:00,
2013-06-04 02:52:00,37.0,21.0,-100.00,East,87,0.0,4.0,51,-99.99,,,-99.99,,2013-06-04 08:52:00,
2013-06-04 03:00:00,36.0,19.0,-100.00,East,91,0.0,2.0,49,-99.99,,,-99.99,,2013-06-04 09:00:00,
2013-06-04 03:43:00,36.0,19.0,-100.00,East,91,0.0,2.0,49,-99.99,,,-99.99,,2013-06-04 09:43:00,
2013-06-04 03:53:00,36.0,19.0,-100.00,East,91,0.0,2.0,49,-99.99,,,-99.99,,2013-06-04 09:53:00,
2013-06-04 04:00:00,35.0,20.0,-100.00,East,91,0.0,2.0,53,-99.99,,,-99.99,,2013-06-04 10:00:00,
2013-06-04 04:42:00,35.0,20.0,-100.00,East,91,0.0,2.0,53,-99.99,,,-99.99,,2013-06-04 10:42:00,
2013-06-04 04:53:00,35.0,20.0,-100.00,East,91,0.0,2.0,53,-99.99,,,-99.99,,2013-06-04 10:53:00,
2013-06-04 05:00:00,36.0,20.0,-100.00,ENE,68,0.0,2.0,53,-99.99,,,-99.99,,2013-06-04 11:00:00,
2013-06-04 05:43:00,36.0,20.0,-100.00,ENE,68,0.0,2.0,53,-99.99,,,-99.99,,2013-06-04 11:43:00,
2013-06-04 05:52:00,36.0,20.0,-100.00,ENE,68,0.0,2.0,53,-99.99,,,-99.99,,2013-06-04 11:52:00,
2013-06-04 06:00:00,36.0,21.0,-100.00,East,82,1.0,2.0,53,-99.99,,,-99.99,,2013-06-04 12:00:00,
2013-06-04 06:42:00,36.0,21.0,-100.00,East,82,1.0,2.0,53,-99.99,,,-99.99,,2013-06-04 12:42:00,
2013-06-04 06:53:00,36.0,21.0,-100.00,East,82,1.0,2.0,53,-99.99,,,-99.99,,2013-06-04 12:53:00,
2013-06-04 07:00:00,36.0,19.0,-100.00,ENE,78,1.0,2.0,49,-99.99,,,-99.99,,2013-06-04 13:00:00,
2013-06-04 07:42:00,36.0,19.0,-100.00,ENE,78,1.0,2.0,49,-99.99,,,-99.99,,2013-06-04 13:42:00,
2013-06-04 07:52:00,36.0,19.0,-100.00,ENE,78,1.0,2.0,49,-99.99,,,-99.99,,2013-06-04 13:52:00,
2013-06-04 08:00:00,41.0,17.0,-100.00,North,6,1.0,5.0,37,-99.99,,,-99.99,,2013-06-04 14:00:00,
2013-06-04 08:43:00,41.0,17.0,-100.00,North,6,1.0,5.0,37,-99.99,,,-99.99,,2013-06-04 14:43:00,
2013-06-04 08:52:00,41.0,17.0,-100.00,North,6,1.0,5.0,37,-99.99,,,-99.99,,2013-06-04 14:52:00,
2013-06-04 09:00:00,47.0,18.0,-100.00,North,0,1.0,9.0,30,-99.99,,,-99.99,,2013-06-04 15:00:00,
2013-06-04 09:42:00,47.0,18.0,-100.00,North,0,1.0,9.0,30,-99.99,,,-99.99,,2013-06-04 15:42:00,
2013-06-04 09:53:00,47.0,18.0,-100.00,North,0,1.0,9.0,30,-99.99,,,-99.99,,2013-06-04 15:53:00,
2013-06-04 10:00:00,51.0,18.0,-100.00,NW,304,4.0,20.0,27,-99.99,,,-99.99,,2013-06-04 16:00:00,
2013-06-04 10:42:00,51.0,18.0,-100.00,NW,304,4.0,20.0,27,-99.99,,,-99.99,,2013-06-04 16:42:00,
2013-06-04 10:53:00,51.0,18.0,-100.00,NW,304,4.0,20.0,27,-99.99,,,-99.99,,2013-06-04 16:53:00,
2013-06-04 11:00:00,53.0,21.0,-100.00,West,268,9.0,24.0,28,-99.99,,,-99.99,,2013-06-04 17:00:00,
2013-06-04 11:42:00,53.0,21.0,-100.00,West,268,9.0,24.0,28,-99.99,,,-99.99,,2013-06-04 17:42:00,
2013-06-04 11:52:00,53.0,21.0,-100.00,West,268,9.0,24.0,28,-99.99,,,-99.99,,2013-06-04 17:52:00,
2013-06-04 12:00:00,55.0,22.0,-100.00,West,276,8.0,23.0,27,-99.99,,,-99.99,,2013-06-04 18:00:00,
2013-06-04 12:42:00,55.0,22.0,-100.00,West,276,8.0,23.0,27,-99.99,,,-99.99,,2013-06-04 18:42:00,
2013-06-04 12:53:00,55.0,22.0,-100.00,West,276,8.0,23.0,27,-99.99,,,-99.99,,2013-06-04 18:53:00,
2013-06-04 13:00:00,55.0,22.0,-100.00,West,280,7.0,18.0,27,-99.99,,,-99.99,,2013-06-04 19:00:00,
2013-06-04 13:42:00,55.0,22.0,-100.00,West,280,7.0,18.0,27,-99.99,,,-99.99,,2013-06-04 19:42:00,
2013-06-04 13:52:00,55.0,22.0,-100.00,West,280,7.0,18.0,27,-99.99,,,-99.99,,2013-06-04 19:52:00,
2013-06-04 14:00:00,55.0,23.0,-100.00,WNW,283,5.0,17.0,29,-99.99,,,-99.99,,2013-06-04 20:00:00,
2013-06-04 14:42:00,55.0,23.0,-100.00,WNW,283,5.0,17.0,29,-99.99,,,-99.99,,2013-06-04 20:42:00,
2013-06-04 14:53:00,55.0,23.0,-100.00,WNW,283,5.0,17.0,29,-99.99,,,-99.99,,2013-06-04 20:53:00,
2013-06-04 15:00:00,53.0,26.0,-100.00,WSW,240,5.0,16.0,35,-99.99,,,-99.99,,2013-06-04 21:00:00,
2013-06-04 15:42:00,53.0,26.0,-100.00,WSW,240,5.0,16.0,35,-99.99,,,-99.99,,2013-06-04 21:42:00,
2013-06-04 15:53:00,53.0,26.0,-100.00,WSW,240,5.0,16.0,35,-99.99,,,-99.99,,2013-06-04 21:53:00,
2013-06-04 16:00:00,53.0,30.0,-100.00,SSW,205,4.0,15.0,41,-99.99,,,-99.99,,2013-06-04 22:00:00,
2013-06-04 16:42:00,53.0,30.0,-100.00,SSW,205,4.0,15.0,41,-99.99,,,-99.99,,2013-06-04 22:42:00,
2013-06-04 16:52:00,53.0,30.0,-100.00,SSW,205,4.0,15.0,41,-99.99,,,-99.99,,2013-06-04 22:52:00,
2013-06-04 17:00:00,55.0,28.0,-100.00,SW,227,5.0,17.0,35,-99.99,,,-99.99,,2013-06-04 23:00:00,
2013-06-04 17:42:00,55.0,28.0,-100.00,SW,227,5.0,17.0,35,-99.99,,,-99.99,,2013-06-04 23:42:00,
2013-06-04 17:52:00,55.0,28.0,-100.00,SW,227,5.0,17.0,35,-99.99,,,-99.99,,2013-06-04 23:52:00,
2013-06-04 18:00:00,54.0,28.0,-100.00,West,269,4.0,17.0,35,-99.99,,,-99.99,,2013-06-05 00:00:00,
2013-06-04 18:42:00,54.0,28.0,-100.00,West,269,4.0,17.0,35,-99.99,,,-99.99,,2013-06-05 00:42:00,
2013-06-04 18:52:00,54.0,28.0,-100.00,West,269,4.0,17.0,35,-99.99,,,-99.99,,2013-06-05 00:52:00,
2013-06-04 19:00:00,54.0,29.0,-100.00,NW,314,3.0,16.0,38,-99.99,,,-99.99,,2013-06-05 01:00:00,
2013-06-04 19:42:00,54.0,29.0,-100.00,NW,314,3.0,16.0,38,-99.99,,,-99.99,,2013-06-05 01:42:00,
2013-06-04 19:52:00,54.0,29.0,-100.00,NW,314,3.0,16.0,38,-99.99,,,-99.99,,2013-06-05 01:52:00,
2013-06-04 20:00:00,51.0,30.0,-100.00,NE,53,1.0,6.0,44,-99.99,,,-99.99,,2013-06-05 02:00:00,
2013-06-04 20:42:00,51.0,30.0,-100.00,NE,53,1.0,6.0,44,-99.99,,,-99.99,,2013-06-05 02:42:00,
2013-06-04 20:52:00,51.0,30.0,-100.00,NE,53,1.0,6.0,44,-99.99,,,-99.99,,2013-06-05 02:52:00,
2013-06-04 21:00:00,48.0,31.0,-100.00,South,186,2.0,13.0,51,-99.99,,,-99.99,,2013-06-05 03:00:00,
2013-06-04 21:43:00,48.0,31.0,-100.00,South,186,2.0,13.0,51,-99.99,,,-99.99,,2013-06-05 03:43:00,
2013-06-04 21:53:00,48.0,31.0,-100.00,South,186,2.0,13.0,51,-99.99,,,-99.99,,2013-06-05 03:53:00,
2013-06-04 22:00:00,44.0,33.0,-100.00,NNW,338,2.0,23.0,63,-99.99,,,-99.99,,2013-06-05 04:00:00,
2013-06-04 22:42:00,44.0,33.0,-100.00,NNW,338,2.0,23.0,63,-99.99,,,-99.99,,2013-06-05 04:42:00,
2013-06-04 22:53:00,44.0,33.0,-100.00,NNW,338,2.0,23.0,63,-99.99,,,-99.99,,2013-06-05 04:53:00,
2013-06-04 23:00:00,39.0,34.0,-100.00,ESE,118,1.0,4.0,83,-99.99,,,-99.99,,2013-06-05 05:00:00,
2013-06-04 23:42:00,39.0,34.0,-100.00,ESE,118,1.0,4.0,83,-99.99,,,-99.99,,2013-06-05 05:42:00,
2013-06-04 23:52:00,39.0,34.0,-100.00,ESE,118,1.0,4.0,83,-99.99,,,-99.99,,2013-06-05 05:52:00,